Location: Les Gen�tes
(46.3104°N, 1.5969°E)
Time: 03:12:13
(UTC+00:00)

NOSS 3-2 (A) - Pass Details

Date: 01 June 2020
Orbit: 801 x 1406 km, 63.4° (Epoch: 02 June)

Event Time Altitude Azimuth Distance (km) Brightness Sun altitude
Rises 21:59:56 0° 319° (NW) 3,976 8.2 -17.0°
Reaches altitude 10° 22:02:30 10° 318° (NW) 3,094 7.3 -17.2°
Maximum altitude 22:10:02 72° 236° (SW) 1,348 4.1 -17.7°
Enters shadow 22:15:11 26° 158° (SSE) 2,388 4.9 -18.1°
